Miscellaneous Local Product
Issued by NWS North Platte, NE

Home | Current Version | Previous Version | Graphics & Text | Print | Product List | Glossary Off
Versions: 1 2 3 4 5 6 7 8 9 10 11 12 13 14 15 16 17 18 19 20 21 22 23 24 25 26 27 28 29 30 31 32 33 34 35 36 37 38 39 40 41 42 43 44 45 46 47 48 49 50

029
AXUS43 KLBF 221410
MISLBF


WESTERN AND NORTH CENTRAL NEBRASKA HOURLY WEATHER ROUNDUP
NATIONAL WEATHER SERVICE NORTH PLATTE NE
900 AM CDT THU JUN 22 2017

NOTE: "FAIR" INDICATES FEW OR NO CLOUDS BELOW 12,000 FEET WITH NO
SIGNIFICANT WEATHER AND/OR OBSTRUCTIONS TO VISIBILITY.

NOTE: STATIONS NOT REPORTING VARIABLES SUCH AS SKY/WEATHER OR
PRESSURE ARE PROVIDED BY RAWS AND APRS NETWORKS AND ARE NOT UNDER
NATIONAL WEATHER SERVICE QUALITY CONTROL.

...OBSERVATIONS IN AND NEAR THE EASTERN PANHANDLE OF NEBRASKA...

CITY           SKY/WX    TMP DP  RH WIND       PRES   REMARKS
PINE RIDGE     SUNNY     65  50  58 NE13      29.85R
GORDON         FAIR      64  48  56 NE16G28   29.83R
CHADRON        SUNNY     66  49  54 N12       29.87R
ALLIANCE       SUNNY     64  52  64 N14       29.84R
SIDNEY         SUNNY     76  50  40 NW18G28   29.85R
CRESCENT LAKE    N/A     67  55  66 N20         N/A
$$

...OBSERVATIONS IN NORTHERN NEBRASKA AND FAR SOUTHERN SOUTH DAKOTA...

CITY           SKY/WX    TMP DP  RH WIND       PRES   REMARKS
WINNER         CLOUDY    66  57  72 N9        29.79R
VALENTINE      PTSUNNY   70  51  51 NE22G36   29.78R
THEDFORD       SUNNY     76  60  57 NW10      29.69R
AINSWORTH      SUNNY     70  61  72 E17G25    29.72R
O`NEILL        CLOUDY    71  69  95 E12       29.68F
ORD            SUNNY     76  58  53 CALM      29.64R
BROKEN BOW     SUNNY     77  61  57 SW8       29.64S
VALENTINE NWR    N/A     64  -4   6 E12         N/A
HALSEY           N/A     77  56  48 NW5G12      N/A
BUTTE            N/A     71  57  61 NE20G26     N/A
CHAMBERS         N/A     79  68  69 E3          N/A
EWING            N/A     77  70  78 E6          N/A
$$

...OBSERVATIONS IN SOUTHWEST NEBRASKA AND FAR NORTHEAST COLORADO...

CITY           SKY/WX    TMP DP  RH WIND       PRES   REMARKS
WRAY           FAIR      81  43  26 W14       29.77S
IMPERIAL       SUNNY     79  48  33 W9        29.72R
OGALLALA       SUNNY     87  44  21 NW21G28   29.72R
NORTH PLATTE   SUNNY     79  55  43 W8        29.65F
MCCOOK         SUNNY     82  58  43 W12       29.66F
LEXINGTON      SUNNY     76  61  59 SW12      29.64F
STAPLETON        N/A     78  57  47 CALM        N/A
GOTHENBURG       N/A     74  55  50 SW3         N/A
CALLAWAY         N/A     73  62  68 SW8         N/A
$$

...OBSERVATIONS IN CENTRAL LINCOLN COUNTY AREA...

CITY           SKY/WX    TMP DP  RH WIND       PRES   REMARKS
N.P. AIRPORT   SUNNY     79  55  43 W8        29.65F
N.P. DOWNTOWN    N/A     77  57  49 CALM        N/A
N.P. SOUTHEAST   N/A     77  56  47 W3          N/A
N.P. HILLCREST   N/A     74  57  55 W7          N/A
$$

...SOME OBSERVATIONS FROM AROUND THE REGION...

CITY           SKY/WX    TMP DP  RH WIND       PRES   REMARKS
DENVER         PTSUNNY   81  38  21 SW14      29.93R
LIMON          SUNNY     75  39  27 NW6       29.93F
ASPEN          CLOUDY    59  40  49 S3        30.17F
LARAMIE        SUNNY     68  39  34 W9        30.07R
CASPER         SUNNY     61  33  35 N15G22    30.06R
CHEYENNE       CLOUDY    72  42  34 NW12      29.99R
SCOTTSBLUFF    SUNNY     68  51  54 NW9       29.87R
GRAND ISLAND   SUNNY     78  61  55 S17G28    29.64F
OMAHA          CLOUDY    78  60  53 S15       29.67S
SIOUX FALLS    CLOUDY    71  63  75 E17G25    29.68F
PIERRE         CLOUDY    55  52  89 NE9       29.77R
RAPID CITY     MOSUNNY   65  51  60 N15       29.89R
BISMARCK       CLOUDY    63  47  55 SW6       29.83F
KANSAS CITY    MOSUNNY   77  68  73 S18       29.77F
HILL CITY      SUNNY     78  63  59 S8        29.68F
WICHITA        MOSUNNY   76  67  73 S15       29.77S
DODGE CITY     SUNNY     75  61  61 S14       29.78F
OKLAHOMA CITY  MOSUNNY   74  66  76 S5        29.80R
DALLAS         CLOUDY    80  72  76 NE9       29.71S
AMARILLO       SUNNY     73  57  57 W9        29.88R
$$




USA.gov is the U.S. government's official web portal to all federal, state and local government web resources and services.